Location: Fort Wayne
(41.1310°N, 85.1290°W)
Time: 06:17:17
(UTC-04:00)

Cosmos 2219 Rocket - Visible Passes

Search period start: 21 August 2017 00:00
Search period end: 31 August 2017 00:00
Orbit: 828 x 847 km, 71.0° (Epoch: 20 August)

Date Brightness Start Highest point End Pass type
(mag) Time Alt. Az. Time Alt. Az. Time Alt. Az.
21 Aug 4.6 01:22:53 14° WNW 01:24:48 16° NW 01:28:10 10° N visible
21 Aug 2.2 23:24:26 68° NE 23:24:26 68° NE 23:29:24 10° NNE visible
22 Aug 4.6 01:06:05 14° WNW 01:08:23 17° NW 01:11:59 10° N visible
22 Aug 2.0 23:07:25 76° ESE 23:07:25 76° ESE 23:13:02 10° NNE visible
23 Aug 4.5 00:49:03 13° W 00:51:58 18° NW 00:55:45 10° N visible
23 Aug 2.0 22:50:02 58° SSE 22:51:01 70° ESE 22:56:40 10° NNE visible
24 Aug 4.5 00:31:38 10° W 00:35:33 19° NW 00:39:31 10° N visible
24 Aug 2.1 22:31:53 30° S 22:34:41 65° ESE 22:40:18 10° NNE visible
25 Aug 4.5 00:14:59 10° W 00:19:07 20° NW 00:23:17 10° N visible
25 Aug 2.1 22:12:47 10° S 22:18:20 60° ESE 22:23:55 10° NNE visible
25 Aug 4.4 23:58:25 10° WSW 00:02:43 22° NW 00:07:02 10° N visible
26 Aug 2.2 21:56:30 10° S 22:02:00 55° ESE 22:07:32 10° NNE visible
26 Aug 4.3 23:41:52 10° WSW 23:46:19 23° NW 23:50:47 10° N visible
27 Aug 2.3 21:40:14 10° S 21:45:40 51° ESE 21:51:08 10° NNE visible
27 Aug 4.3 23:25:19 10° WSW 23:29:55 25° NW 23:34:31 10° N visible
28 Aug 2.4 21:23:58 10° S 21:29:21 47° ESE 21:34:45 10° NE visible
28 Aug 4.2 23:08:47 10° WSW 23:13:31 26° NW 23:18:15 10° N visible
29 Aug 4.8 06:17:55 10° N 06:22:23 23° NE 06:26:47 10° ESE visible
29 Aug 2.5 21:07:42 10° S 21:13:01 43° ESE 21:18:21 10° NE visible
29 Aug 4.1 22:52:17 10° WSW 22:57:07 28° NW 23:01:57 10° N visible
30 Aug 4.9 06:01:40 10° N 06:05:58 22° NE 06:10:14 10° ESE visible
30 Aug 2.6 20:51:28 10° S 20:56:42 40° ESE 21:01:56 10° NE visible
30 Aug 4.0 22:35:47 10° WSW 22:40:43 30° WNW 22:45:41 10° N visible
